Погода в Кабицыно

Россия / Калужская область     55°08′23″N   36°37′40″E
темп.,
°C
ветер,
м/с
пор.,
м/с
влажн.,
%
обл.,
%
осадки,
мм/ч
давл.,
гПа
погр.,
м
16 мая, пн
пн1600:00+7сз4129588 0.0 1006505
03:00+5зсз4129491 0.0 1007439
06:00+5зсз411915 0.0 1007414
09:00+10сз59625 0.0 10071351
12:00+12зсз685482 0.7 10071991
15:00+12зсз685867 1.9 10071798
18:00+10зсз587072 1.0 10071230
21:00+6зсз4108645 1.1 1007388
17 мая, вт
вт1700:00+4зсз41194100 0.0 1007443
03:00+6зсз51196100 1.7 1005954
06:00+6зсз61196100 1.0 10041092
09:00+6сз61295100 5.3 1005890
12:00+6сз51194100 0.1 1006737
15:00+6зсз51097100 2.6 1006645
18:00+7сз51096100 1.0 1006659
21:00+7ссз51196100 1.0 1006612
18 мая, ср
ср1800:00+6ссз4119755 0.0 1007356
03:00+4ссз4119830 0.1 1008311
06:00+5ссз4109616 0.0 1010390
09:00+9с612675 0.0 10111161
12:00+13с684969 0.0 10122016
15:00+11ссз686299 0.1 10131208
18:00+10ссз597260 0.3 10141233
21:00+6сз397887 0.4 1016306
19 мая, чт
чт1900:00+4зсз3892100 0.1 1016221
03:00+3зюз3890100 0.1 1015204
06:00+6зюз61375100 0.0 1012882
09:00+6сз71292100 0.6 10131086
12:00+8ссз5106799 0.3 10151523
15:00+12ссз5746100 0.6 10152208
18:00+11с465557 0.1 10161594
21:00+5сз248040 0.2 101863
20 мая, пт
пт2000:00+3ссз22865 0.0 101823
03:00+2сз22915 0.0 101927
06:00+4сз248425 0.0 1019127
09:00+10сз34595 0.0 1018978
12:00+12сз464499 0.1 10162247
15:00+13ссз4644100 0.1 10151996
18:00+11ссв345566 0.0 10141261
21:00+5св357611 0.0 101482